TimeCST,TemperatureF,Dew PointF,Humidity,Sea Level PressureIn,VisibilityMPH,Wind Direction,Wind SpeedMPH,Gust SpeedMPH,PrecipitationIn,Events,Conditions,WindDirDegrees,DateUTC
12:15 AM,18.7,14.5,84,30.31,10.0,NW,5.8,-,N/A,,Clear,320,2013-02-15 06:15:00
12:35 AM,18.1,14.0,84,30.30,10.0,NW,5.8,-,N/A,,Clear,320,2013-02-15 06:35:00
12:55 AM,16.2,12.6,86,30.31,10.0,NW,4.6,-,N/A,,Clear,310,2013-02-15 06:55:00
1:15 AM,16.2,12.0,84,30.31,10.0,NW,6.9,-,N/A,,Clear,320,2013-02-15 07:15:00
1:35 AM,16.7,13.1,86,30.31,10.0,NNW,3.5,-,N/A,,Clear,340,2013-02-15 07:35:00
1:55 AM,18.5,14.5,85,30.31,10.0,NNW,3.5,-,N/A,,Mostly Cloudy,330,2013-02-15 07:55:00
2:15 AM,20.7,16.0,82,30.31,10.0,WNW,8.1,-,N/A,,Overcast,300,2013-02-15 08:15:00
2:35 AM,21.4,15.8,79,30.30,10.0,NW,4.6,-,N/A,,Mostly Cloudy,310,2013-02-15 08:35:00
2:55 AM,18.5,14.0,83,30.30,10.0,NW,4.6,-,N/A,,Scattered Clouds,310,2013-02-15 08:55:00
3:15 AM,18.7,14.5,84,30.30,10.0,WNW,4.6,-,N/A,,Clear,300,2013-02-15 09:15:00
3:35 AM,18.0,14.0,84,30.30,10.0,NW,3.5,-,N/A,,Clear,310,2013-02-15 09:35:00
3:55 AM,17.4,13.6,85,30.30,10.0,NNW,3.5,-,N/A,,Clear,330,2013-02-15 09:55:00
4:15 AM,18.1,14.0,84,30.31,10.0,NNW,4.6,-,N/A,,Clear,330,2013-02-15 10:15:00
4:35 AM,17.4,13.6,85,30.31,10.0,NNW,4.6,-,N/A,,Scattered Clouds,330,2013-02-15 10:35:00
4:55 AM,18.9,15.1,85,30.31,10.0,NW,3.5,-,N/A,,Mostly Cloudy,320,2013-02-15 10:55:00
5:15 AM,19.8,15.4,83,30.31,10.0,Calm,Calm,-,N/A,,Overcast,0,2013-02-15 11:15:00
5:35 AM,20.8,16.5,83,30.32,10.0,Calm,Calm,-,N/A,,Overcast,0,2013-02-15 11:35:00
5:55 AM,20.5,16.2,83,30.32,10.0,Calm,Calm,-,N/A,,Mostly Cloudy,0,2013-02-15 11:55:00
6:15 AM,19.6,15.3,83,30.32,10.0,Calm,Calm,-,N/A,,Mostly Cloudy,0,2013-02-15 12:15:00
6:35 AM,20.3,16.2,84,30.32,10.0,Calm,Calm,-,N/A,,Overcast,0,2013-02-15 12:35:00
6:55 AM,19.0,15.4,86,30.32,10.0,Calm,Calm,-,N/A,,Overcast,0,2013-02-15 12:55:00
7:15 AM,20.3,16.5,85,30.32,10.0,Calm,Calm,-,N/A,,Overcast,0,2013-02-15 13:15:00
7:35 AM,20.3,16.7,86,30.32,10.0,Calm,Calm,-,N/A,,Overcast,0,2013-02-15 13:35:00
7:55 AM,21.2,17.4,85,30.31,10.0,Calm,Calm,-,N/A,,Overcast,0,2013-02-15 13:55:00
8:15 AM,22.1,18.3,85,30.31,10.0,Calm,Calm,-,N/A,,Overcast,0,2013-02-15 14:15:00
8:35 AM,23.0,18.7,84,30.31,10.0,Calm,Calm,-,N/A,,Overcast,0,2013-02-15 14:35:00
8:55 AM,24.1,19.4,82,30.31,10.0,Calm,Calm,-,N/A,,Overcast,0,2013-02-15 14:55:00
9:15 AM,24.6,19.2,80,30.31,10.0,WSW,4.6,-,N/A,,Overcast,250,2013-02-15 15:15:00
9:35 AM,25.2,19.9,81,30.31,10.0,WSW,5.8,-,N/A,,Overcast,240,2013-02-15 15:35:00
9:55 AM,25.7,19.2,76,30.31,10.0,WSW,5.8,-,N/A,,Mostly Cloudy,240,2013-02-15 15:55:00
10:15 AM,27.1,19.2,72,30.30,10.0,SW,5.8,-,N/A,,Mostly Cloudy,220,2013-02-15 16:15:00
10:35 AM,27.9,19.9,72,30.30,10.0,WSW,5.8,-,N/A,,Overcast,250,2013-02-15 16:35:00
10:55 AM,28.8,20.8,72,30.29,10.0,WSW,6.9,-,N/A,,Overcast,250,2013-02-15 16:55:00
11:15 AM,29.8,21.4,71,30.29,10.0,WNW,9.2,-,N/A,,Overcast,300,2013-02-15 17:15:00
11:55 AM,30.9,20.5,65,30.29,10.0,NW,8.1,-,N/A,,Overcast,310,2013-02-15 17:55:00
12:15 PM,31.5,18.7,59,30.28,10.0,North,9.2,-,N/A,,Overcast,350,2013-02-15 18:15:00
12:35 PM,31.3,19.4,61,30.28,10.0,NW,15.0,-,N/A,Snow,Light Snow,320,2013-02-15 18:35:00
12:55 PM,30.7,20.3,65,30.28,5.0,NW,12.7,23.0,N/A,Snow,Light Snow,320,2013-02-15 18:55:00
1:15 PM,31.1,18.9,61,30.27,10.0,NNW,17.3,21.9,N/A,,Overcast,330,2013-02-15 19:15:00
1:35 PM,32.0,15.3,50,30.26,10.0,NNW,21.9,27.6,N/A,,Overcast,330,2013-02-15 19:35:00
1:55 PM,32.7,14.9,48,30.26,10.0,NW,16.1,24.2,N/A,,Overcast,320,2013-02-15 19:55:00
2:15 PM,29.5,21.2,71,30.27,4.0,NNW,13.8,24.2,N/A,Snow,Light Snow,330,2013-02-15 20:15:00
2:35 PM,30.6,18.5,61,30.27,10.0,NNW,21.9,27.6,N/A,,Overcast,340,2013-02-15 20:35:00
2:55 PM,30.4,18.5,61,30.27,7.0,NNW,19.6,23.0,N/A,,Overcast,330,2013-02-15 20:55:00
3:15 PM,27.7,21.2,77,30.28,1.2,NNW,25.3,34.5,N/A,Snow,Light Snow,330,2013-02-15 21:15:00
3:35 PM,28.4,21.7,76,30.28,10.0,NNW,18.4,24.2,N/A,,Overcast,330,2013-02-15 21:35:00
3:55 PM,29.3,18.9,65,30.29,10.0,NNW,20.7,28.8,N/A,,Overcast,330,2013-02-15 21:55:00
4:15 PM,30.4,15.6,54,30.29,10.0,NNW,21.9,28.8,N/A,,Mostly Cloudy,330,2013-02-15 22:15:00
4:35 PM,30.2,15.6,55,30.30,10.0,North,19.6,26.5,N/A,,Overcast,350,2013-02-15 22:35:00
4:55 PM,27.9,15.6,60,30.31,10.0,North,18.4,26.5,N/A,,Mostly Cloudy,350,2013-02-15 22:55:00
5:15 PM,27.1,13.6,57,30.31,10.0,NNW,16.1,25.3,N/A,,Scattered Clouds,340,2013-02-15 23:15:00
5:35 PM,26.6,14.2,60,30.32,10.0,NNW,11.5,16.1,N/A,,Scattered Clouds,340,2013-02-15 23:35:00
5:55 PM,25.5,15.8,67,30.32,10.0,North,10.4,-,N/A,,Scattered Clouds,350,2013-02-15 23:55:00
6:15 PM,24.4,14.5,66,30.32,10.0,North,10.4,-,N/A,,Scattered Clouds,350,2013-02-16 00:15:00
6:35 PM,23.5,14.0,67,30.32,10.0,NNW,8.1,-,N/A,,Clear,340,2013-02-16 00:35:00
6:55 PM,23.0,13.8,68,30.32,10.0,North,8.1,-,N/A,,Clear,350,2013-02-16 00:55:00
7:15 PM,22.1,14.0,71,30.33,10.0,North,8.1,-,N/A,,Clear,350,2013-02-16 01:15:00
7:35 PM,21.2,14.0,74,30.33,10.0,North,6.9,-,N/A,,Clear,350,2013-02-16 01:35:00
7:55 PM,20.3,14.0,77,30.34,10.0,North,5.8,-,N/A,,Clear,360,2013-02-16 01:55:00
8:15 PM,19.4,13.6,78,30.34,10.0,North,5.8,-,N/A,,Clear,350,2013-02-16 02:15:00
8:35 PM,18.5,13.1,79,30.34,10.0,NNW,5.8,-,N/A,,Clear,340,2013-02-16 02:35:00
8:55 PM,17.4,12.6,81,30.34,10.0,NNW,3.5,-,N/A,,Clear,330,2013-02-16 02:55:00
9:15 PM,14.9,11.1,85,30.34,10.0,Calm,Calm,-,N/A,,Clear,0,2013-02-16 03:15:00
9:35 PM,14.2,10.2,84,30.35,10.0,Calm,Calm,-,N/A,,Clear,0,2013-02-16 03:35:00
9:55 PM,12.6,9.1,86,30.34,10.0,Calm,Calm,-,N/A,,Clear,0,2013-02-16 03:55:00
10:15 PM,12.0,8.6,86,30.34,10.0,Calm,Calm,-,N/A,,Clear,0,2013-02-16 04:15:00
10:35 PM,11.7,8.2,86,30.32,10.0,Calm,Calm,-,N/A,,Clear,0,2013-02-16 04:35:00
10:55 PM,10.9,7.7,87,30.31,10.0,Calm,Calm,-,N/A,,Clear,0,2013-02-16 04:55:00
11:15 PM,11.1,7.5,85,30.31,10.0,Calm,Calm,-,N/A,,Clear,0,2013-02-16 05:15:00
11:35 PM,9.0,5.0,84,30.30,10.0,Calm,Calm,-,N/A,,Clear,0,2013-02-16 05:35:00
11:55 PM,8.4,4.5,84,30.30,10.0,Calm,Calm,-,N/A,,Clear,0,2013-02-16 05:55:00